Regional Weather Roundup
Issued by NWS San Diego, CA

Current Version | Previous Version | Text Only | Print | Product List | Glossary On
Versions: 1 2 3 4 5 6 7 8 9 10 11 12 13 14 15 16 17 18 19 20 21 22 23 24 25 26 27
000
ASUS46 KSGX 221811
RWRSGX

SAN DIEGO HOURLY WEATHER ROUNDUP
NATIONAL WEATHER SERVICE SAN DIEGO CA
1000 AM PST THU FEB 22 2018

NOTE: "FAIR" INDICATES FEW OR NO CLOUDS BELOW 12,000 FEET WITH NO
SIGNIFICANT WEATHER AND/OR OBSTRUCTIONS TO VISIBILITY.

CAZ042-043-060-061-PZZ750-775-221900-

GREATER SAN DIEGO AREA

CITY           SKY/WX    TMP DP  RH WIND       PRES   REMARKS
SAN DIEGO AP   PTSUNNY   56  45  66 S12       30.29R
NATIONAL CITY    N/A     58  45  62 S3        30.29S
CHULA VISTA      N/A     60  46  61 CALM      30.19R
IMPERIAL BEACH PTSUNNY   60  41  49 S8        30.28S
BROWN FIELD    PTSUNNY   55  41  59 SE8       30.27R
MIRAMAR MCAS   MOSUNNY   61  41  47 S6        30.26R
MONTGOMERY FLD PTSUNNY   55  42  61 S9        30.27R

$$

NORTH SAN DIEGO COUNTY

CITY           SKY/WX    TMP DP  RH WIND       PRES   REMARKS
CAMP PENDLETON PTSUNNY   56  41  57 CALM      30.26S
OCEANSIDE AP   MOSUNNY   58  43  57 MISG      30.26R
OCEANSIDE HBR    N/A     58  47  67 S8        30.29R
VISTA            N/A     56  44  64 SE1       30.26R
CARLSBAD       PTSUNNY   55  42  61 S7        30.26R
DEL MAR          N/A     56  44  64 CALM      30.29R
LA JOLLA SCRIP   N/A     56  45  65 S2        30.27R
FALLBROOK        N/A     55  46  72 CALM      30.27S
ESCONDIDO        N/A     55  42  60 SW5       30.28R
SAN MARCOS       N/A     53  43  69 S2        30.31R
POWAY            N/A     56  43  63 CALM      30.29R

$$

EAST SAN DIEGO COUNTY

CITY           SKY/WX    TMP DP  RH WIND       PRES   REMARKS
RAMONA         PTSUNNY   51  40  65 SW8       30.24R
SANTEE LAKES     N/A     53  44  72 CALM      30.27S
LA MESA          N/A     55  42  61 CALM      30.21S
JAMUL            N/A     53  41  64 CALM      30.29R
CAMPO            N/A     46  36  68 SW12      30.18S

$$

ORANGE COUNTY AND THE LOS ANGELES BASIN

CITY           SKY/WX    TMP DP  RH WIND       PRES   REMARKS
JOHN WAYNE AP  PTSUNNY   59  43  55 S14       30.25R
LAGUNA BEACH     N/A     56  48  73 CALM      30.20S
LAKE FOREST FR   N/A     52  38  60 SW3       30.15R
HUNTINGTON BCH   N/A     59  46  61 S3        30.26R
LOS ALAMITOS   PTSUNNY   58  41  54 SW9       30.24S
FULLERTON      SUNNY     57  41  55 VRB5      30.24S
LONG BEACH     MOSUNNY   58  42  55 VRB5      30.24S
L.A. AP        MOSUNNY   56  40  55 SE6       30.25R
L.A. DOWNTOWN  SUNNY     56  37  49 E7        30.24S

$$

THE INLAND EMPIRE

CITY           SKY/WX    TMP DP  RH WIND       PRES   REMARKS
CHINO          PTSUNNY   49  39  68 VRB3      30.26S
ONTARIO        LGT RAIN  48  37  65 CALM      30.24S
SAN BERNARDINO CLOUDY    48  36  61 SE3       30.24R
RIVERSIDE AP   PTSUNNY   51  40  65 VRB3      30.24S
MORENO VALLEY    N/A     50  43  78 S2        28.32S
MARCH ARB      MOSUNNY   51  35  52 S6        30.22S
HORSETHIEF CYN   N/A     49  34  57 SE5       30.27S
PERRIS           N/A     49  41  73 S5        30.18S
HEMET EAST       N/A     46  37  72 SW2       30.21R
FRENCH VALLEY  FAIR      50  37  62 S7        30.24S
TEMECULA         N/A     50  44  78 SW3       30.29S

$$

SAN BERNARDINO AND RIVERSIDE COUNTY MOUNTAINS

CITY           SKY/WX    TMP DP  RH WIND       PRES   REMARKS
BIG BEAR AP      N/A     28  18  64 W16       30.07S WCI  17
ANGELUS OAKS     N/A     30  22  71 CALM      30.28S

$$

SOUTHERN DESERT INCLUDING THE COACHELLA VALLEY

CITY           SKY/WX    TMP DP  RH WIND       PRES   REMARKS
PALM SPRINGS   FAIR      57  28  33 SE6       30.22R
THOUSAND PALMS   N/A     55  33  42 NW2       30.19R
PALM DESERT      N/A     59  32  36 CALM      28.76S
THERMAL        SUNNY     60  35  39 VRB6      30.20F
BLYTHE         SUNNY     51  29  42 S6        30.22R
IMPERIAL AP    SUNNY     59  30  33 W9G17     30.23S
EL CENTRO NAS  MOSUNNY   61  31  32 W16         N/A
YUMA AZ        SUNNY     55  33  43 W5        30.25S
MEXICALI       SUNNY     57  30  35 S3        30.25S

$$

UPPER DESERT

CITY           SKY/WX    TMP DP  RH WIND       PRES   REMARKS
VICTORVILLE AP SUNNY     46  19  34 SW9       30.14S
HESPERIA         N/A     44  29  56 W15       30.26F
APPLE VALLEY     N/A     47  28  47 N20       30.25F
PALMDALE       SUNNY     48  24  39 SW21G29   30.16S
LANCASTER      SUNNY     47  27  45 SW20      30.16S
EDWARDS AFB    MOSUNNY   48  19  31 SW21G30   30.12S
DAGGETT        SUNNY     52  23  32 SW26G36   30.12S
29 PALMS N     SUNNY     46  16  30 E6        30.21F
NEEDLES        SUNNY     52  10  18 SE5       30.17F

$$

REGIONAL REPORTS

CITY           SKY/WX    TMP DP  RH WIND       PRES   REMARKS
SANTA BARBARA  SUNNY     56  32  40 S8        30.23S
SANDBERG       SUNNY     37  20  50 S8        30.14S WCI  31
LAS VEGAS NV   MOSUNNY   48  12  23 S10G21    30.07F
PHOENIX AZ     MOSUNNY   54  14  20 E5        30.23R
TIJUANA        PTSUNNY   54  41  62 SE6       30.30S
ENSENADA NW      N/A     59  32  36 CALM      30.21S

$$

OFFSHORE ISLANDS

CITY           SKY/WX    TMP DP  RH WIND       PRES   REMARKS
CATALINA ARPT  MOSUNNY   50  38  63 W15       30.23S
SAN CLEMENTE I PTSUNNY   58  44  60 W17       30.28R
SAN NICOLAS IS MOSUNNY   57  41  55 NW16      30.26R

$$

MARINE AND OFFSHORE BUOY REPORTS

STATION/POSITION SKY/WX   TEMP    WIND        PRES    VSBY  SWELL
                          AIR SEA DIR/SP/G                  HT/PER/DIR
                          (F)     (DEG/KT/KT) (MB)    (MI)  (FT/S/D)
TANNER BANKS               55 59              1025.1R
S CLEMENTE BASIN           56 61  280/  6/  8 1025.2R         3/280/15
SAN NICOLAS IS.               57                N/A           3/300/14
SO. S. ROSA ISLA           53 57  330/ 16/ 17 1024.6R         3/300/14
W. S. BARBARA CH           53 57  320/ 12/ 16 1024.7
M. S. BARBARA CH           53 57  300/  8/ 12 1025.1
S. MONICA BASIN               60  320/  6/  8 1024.2R         3/270/ 5
S PEDRO CHANNEL               60                N/A           2/270/15
CMP PENDLETON NS              58                N/A           2/220/13
OCEANSIDE OFFSHR              59                N/A           2/260/14
TORREY PINES OTR              60                N/A           2/270/15
SAN DIEGO BAY                 64              1025.7R
POINT LOMA SOUTH              60                N/A           2/280/15

$$





USA.gov is the U.S. government's official web portal to all federal, state and local government web resources and services.